| time (UTC) | temp C | wind direction | speed KPH | gust KPH | rain 1hr cm | rain 24hr cm | rain mn cm | humidity % | barometer mb |
| 20260505200938 | 11 | 313 | 0.0 | 0.0 | 0.00 | 2.36 | 2.36 | 98 | 1006.6 |
| 20260505200436 | 11 | 325 | 0.0 | 0.0 | 0.00 | 2.36 | 2.36 | 98 | 1006.6 |
| 20260505195931 | 11 | 270 | 1.6 | 3.2 | 0.00 | 2.36 | 2.36 | 98 | 1006.3 |
| 20260505195428 | 11 | 332 | 1.6 | 3.2 | 0.00 | 2.36 | 2.36 | 98 | 1005.4 |
| 20260505194926 | 11 | 356 | 3.2 | 3.2 | 0.00 | 2.36 | 2.36 | 98 | 1005.1 |
| 20260505194423 | 11 | 354 | 3.2 | 4.8 | 0.00 | 2.36 | 2.36 | 98 | 1005.6 |
| 20260505193923 | 12 | 119 | 1.6 | 1.6 | 0.00 | 2.36 | 2.36 | 98 | 1005.7 |
| 20260505193421 | 11 | 345 | 0.0 | 0.0 | 0.00 | 2.36 | 2.36 | 98 | 1005.7 |
| 20260505192918 | 11 | 332 | 1.6 | 3.2 | 0.00 | 2.36 | 2.36 | 98 | 1005.7 |
| 20260505192416 | 11 | 17 | 3.2 | 4.8 | 0.00 | 2.36 | 2.36 | 98 | 1005.6 |
| 20260505191913 | 12 | 326 | 4.8 | 8.0 | 0.00 | 2.36 | 2.36 | 98 | 1006.2 |
| 20260505191412 | 12 | 321 | 1.6 | 3.2 | 0.00 | 2.36 | 2.36 | 98 | 1006.1 |
| 20260505190909 | 12 | 22 | 1.6 | 1.6 | 0.00 | 2.36 | 2.36 | 98 | 1006.2 |
| 20260505190404 | 12 | 342 | 3.2 | 4.8 | 0.00 | 2.36 | 2.36 | 98 | 1005.9 |
| 20260505185859 | 12 | 342 | 0.0 | 1.6 | 0.00 | 2.36 | 2.36 | 98 | 1005.7 |
| 20260505185356 | 12 | 341 | 1.6 | 3.2 | 0.00 | 2.36 | 2.36 | 98 | 1005.7 |
| 20260505184852 | 12 | 355 | 3.2 | 3.2 | 0.00 | 2.36 | 2.36 | 98 | 1005.8 |
| 20260505184349 | 12 | 311 | 1.6 | 1.6 | 0.00 | 2.36 | 2.36 | 98 | 1005.7 |
| 20260505183847 | 12 | 311 | 0.0 | 0.0 | 0.00 | 2.36 | 2.36 | 98 | 1005.9 |
| 20260505183343 | 12 | 342 | 1.6 | 3.2 | 0.00 | 2.36 | 2.36 | 98 | 1005.3 |
| 20260505182840 | 12 | 356 | 3.2 | 3.2 | 0.00 | 2.36 | 2.36 | 98 | 1005.3 |
| 20260505182337 | 12 | 358 | 0.0 | 1.6 | 0.00 | 2.36 | 2.36 | 98 | 1005.2 |
| 20260505181834 | 12 | 327 | 0.0 | 1.6 | 0.00 | 2.36 | 2.36 | 98 | 1005.2 |
| 20260505181331 | 13 | 347 | 3.2 | 4.8 | 0.13 | 2.36 | 2.36 | 98 | 1005.3 |
| 20260505180827 | 13 | 356 | 3.2 | 3.2 | 0.13 | 2.36 | 2.36 | 98 | 1005.2 |
| 20260505180324 | 13 | 310 | 1.6 | 3.2 | 0.00 | 2.34 | 2.34 | 98 | 1005.3 |
| 20260505175820 | 13 | 4 | 0.0 | 0.0 | 0.00 | 2.34 | 2.34 | 98 | 1005.3 |
| 20260505175317 | 13 | 0 | 0.0 | 0.0 | 0.00 | 2.34 | 2.34 | 98 | 1005.3 |
| 20260505174814 | 14 | 355 | 4.8 | 9.7 | 0.00 | 2.34 | 2.34 | 98 | 1005.3 |
| 20260505174311 | 14 | 322 | 1.6 | 3.2 | 0.00 | 2.34 | 2.34 | 98 | 1005.2 |
| 20260505173807 | 14 | 309 | 3.2 | 3.2 | 0.00 | 2.34 | 2.34 | 98 | 1005.2 |
| 20260505173303 | 14 | 7 | 0.0 | 0.0 | 0.00 | 2.34 | 2.34 | 98 | 1005.0 |
| 20260505172800 | 15 | 6 | 3.2 | 4.8 | 0.00 | 2.34 | 2.34 | 98 | 1004.9 |
| 20260505172258 | 15 | 343 | 1.6 | 3.2 | 0.00 | 2.34 | 2.34 | 98 | 1004.9 |
| 20260505171752 | 15 | 335 | 1.6 | 3.2 | 0.00 | 2.34 | 2.34 | 97 | 1004.8 |
| 20260505171249 | 15 | 350 | 3.2 | 3.2 | 0.00 | 2.34 | 2.34 | 98 | 1005.0 |
| 20260505170746 | 15 | 2 | 4.8 | 8.0 | 0.00 | 2.34 | 2.34 | 98 | 1005.1 |
| 20260505170243 | 15 | 343 | 3.2 | 3.2 | 0.00 | 2.34 | 2.34 | 98 | 1005.0 |
| 20260505165738 | 15 | 340 | 1.6 | 3.2 | 0.00 | 2.34 | 2.34 | 98 | 1005.2 |
| 20260505165235 | 15 | 336 | 4.8 | 8.0 | 0.00 | 2.34 | 2.34 | 98 | 1005.2 |
| 20260505164730 | 15 | 317 | 4.8 | 4.8 | 0.00 | 2.34 | 2.34 | 98 | 1004.9 |
| 20260505164228 | 15 | 317 | 1.6 | 1.6 | 0.00 | 2.34 | 2.34 | 98 | 1004.9 |
| 20260505163726 | 16 | 22 | 1.6 | 3.2 | 0.00 | 2.34 | 2.34 | 98 | 1004.8 |
| 20260505163224 | 15 | 22 | 3.2 | 3.2 | 0.00 | 2.34 | 2.34 | 98 | 1004.9 |
| 20260505162721 | 16 | 23 | 3.2 | 3.2 | 0.00 | 2.34 | 2.34 | 98 | 1005.1 |
| 20260505162218 | 16 | 23 | 1.6 | 1.6 | 0.00 | 2.34 | 2.34 | 98 | 1005.1 |
| 20260505161715 | 16 | 23 | 3.2 | 3.2 | 0.00 | 2.34 | 2.34 | 98 | 1005.0 |
| 20260505161213 | 16 | 25 | 3.2 | 3.2 | 0.00 | 2.34 | 2.34 | 98 | 1005.0 |
| 20260505160710 | 16 | 32 | 0.0 | 0.0 | 0.00 | 2.34 | 2.34 | 98 | 1005.1 |
| 20260505160207 | 16 | 32 | 0.0 | 0.0 | 0.00 | 2.34 | 2.34 | 98 | 1004.7 |
| 20260505153146 | 15 | 34 | 1.6 | 1.6 | 0.00 | 2.34 | 2.34 | 97 | 1004.4 |
| 20260505152643 | 15 | 31 | 1.6 | 1.6 | 0.00 | 2.34 | 2.34 | 97 | 1004.5 |
| 20260505152139 | 16 | 24 | 0.0 | 0.0 | 0.00 | 2.34 | 2.34 | 97 | 1004.6 |
| 20260505151634 | 15 | 343 | 4.8 | 4.8 | 0.00 | 2.34 | 2.34 | 97 | 1004.5 |
| 20260505151132 | 16 | 342 | 3.2 | 3.2 | 0.00 | 2.34 | 2.34 | 97 | 1004.6 |
| 20260505150628 | 16 | 341 | 1.6 | 3.2 | 0.00 | 2.34 | 2.34 | 97 | 1004.7 |
| 20260505150125 | 16 | 341 | 0.0 | 0.0 | 0.00 | 2.34 | 2.34 | 97 | 1004.7 |
| 20260505140553 | 15 | 294 | 0.0 | 0.0 | 0.00 | 2.34 | 2.34 | 97 | 1005.3 |
| 20260505125007 | 15 | 274 | 1.6 | 3.2 | 0.00 | 2.34 | 2.34 | 97 | 1004.9 |
| 20260505124504 | 15 | 274 | 1.6 | 3.2 | 0.18 | 2.34 | 2.34 | 97 | 1004.7 |
| 20260505124000 | 15 | 273 | 1.6 | 1.6 | 0.18 | 2.34 | 2.34 | 97 | 1004.6 |
| 20260505123456 | 15 | 273 | 0.0 | 1.6 | 0.00 | 2.31 | 2.31 | 97 | 1004.3 |
| 20260505122952 | 15 | 241 | 0.0 | 0.0 | 0.00 | 2.31 | 2.31 | 97 | 1004.5 |
| 20260505122450 | 15 | 241 | 1.6 | 1.6 | 0.00 | 2.31 | 2.31 | 97 | 1004.3 |
| 20260505121947 | 15 | 225 | 1.6 | 3.2 | 0.00 | 2.31 | 2.31 | 97 | 1004.2 |
| 20260505121443 | 15 | 208 | 1.6 | 1.6 | 0.00 | 2.31 | 2.31 | 97 | 1003.9 |
| 20260505120939 | 15 | 223 | 1.6 | 3.2 | 0.00 | 2.31 | 2.31 | 97 | 1004.1 |
| 20260505120436 | 15 | 223 | 1.6 | 1.6 | 0.00 | 2.31 | 2.31 | 97 | 1004.1 |
| 20260505115935 | 15 | 223 | 0.0 | 0.0 | 0.00 | 2.31 | 2.31 | 97 | 1004.0 |
| 20260505115432 | 15 | 222 | 3.2 | 3.2 | 0.00 | 2.31 | 2.31 | 97 | 1003.9 |
| 20260505114930 | 15 | 222 | 1.6 | 3.2 | 0.00 | 2.31 | 2.31 | 97 | 1003.7 |
| 20260505114426 | 15 | 199 | 3.2 | 3.2 | 0.00 | 2.31 | 2.31 | 97 | 1003.6 |
| 20260505113922 | 15 | 209 | 1.6 | 1.6 | 0.00 | 2.31 | 2.31 | 97 | 1003.7 |
| 20260505113419 | 15 | 202 | 1.6 | 3.2 | 0.00 | 2.31 | 2.31 | 97 | 1003.5 |
| 20260505112915 | 15 | 233 | 1.6 | 1.6 | 0.00 | 2.31 | 2.31 | 97 | 1004.0 |
| 20260505112413 | 15 | 212 | 6.4 | 8.0 | 0.00 | 2.31 | 2.31 | 97 | 1003.6 |
| 20260505111908 | 15 | 220 | 0.0 | 0.0 | 0.00 | 2.31 | 2.31 | 97 | 1003.7 |
| 20260505111403 | 15 | 219 | 3.2 | 4.8 | 0.00 | 2.31 | 2.31 | 97 | 1003.6 |
| 20260505110900 | 15 | 212 | 0.0 | 1.6 | 0.00 | 2.31 | 2.31 | 97 | 1003.8 |
| 20260505110357 | 15 | 211 | 3.2 | 3.2 | 0.00 | 2.31 | 2.31 | 97 | 1004.0 |
| 20260505101827 | 15 | 208 | 1.6 | 1.6 | 0.00 | 2.29 | 2.29 | 97 | 1004.6 |
| 20260505101322 | 15 | 205 | 4.8 | 4.8 | 0.18 | 2.29 | 2.29 | 97 | 1004.6 |
| 20260505100818 | 15 | 206 | 1.6 | 3.2 | 0.66 | 2.29 | 2.29 | 97 | 1004.7 |
| 20260505100315 | 15 | 206 | 0.0 | 0.0 | 1.19 | 2.26 | 2.26 | 97 | 1004.8 |
| 20260505095811 | 15 | 205 | 0.0 | 0.0 | 1.07 | 2.21 | 2.21 | 97 | 1004.9 |
| 20260505095309 | 15 | 299 | 3.2 | 3.2 | 0.79 | 2.06 | 2.06 | 97 | 1004.6 |
| 20260505094804 | 15 | 299 | 0.0 | 0.0 | 0.79 | 2.03 | 2.03 | 97 | 1004.8 |
| 20260505094301 | 15 | 299 | 0.0 | 0.0 | 0.48 | 1.96 | 1.96 | 97 | 1005.0 |
| 20260505093757 | 15 | 300 | 0.0 | 0.0 | 0.13 | 1.91 | 1.91 | 97 | 1004.9 |
| 20260505093255 | 15 | 300 | 0.0 | 0.0 | 1.19 | 1.88 | 1.88 | 97 | 1005.3 |
| 20260505092751 | 15 | 300 | 0.0 | 0.0 | 1.85 | 1.88 | 1.88 | 97 | 1005.2 |
| 20260505092249 | 15 | 301 | 0.0 | 0.0 | 1.07 | 1.70 | 1.70 | 97 | 1005.1 |
| 20260505091746 | 15 | 301 | 0.0 | 0.0 | 0.43 | 1.57 | 1.57 | 97 | 1005.0 |
| 20260505091244 | 15 | 301 | 0.0 | 0.0 | 0.43 | 1.52 | 1.52 | 97 | 1004.7 |
| 20260505090737 | 15 | 301 | 0.0 | 0.0 | 0.79 | 1.50 | 1.50 | 97 | 1004.8 |
| 20260505090235 | 15 | 301 | 0.0 | 0.0 | 0.48 | 1.45 | 1.45 | 97 | 1004.6 |
| 20260505085732 | 15 | 301 | 0.0 | 0.0 | 0.13 | 1.37 | 1.37 | 96 | 1004.9 |
| 20260505085230 | 15 | 301 | 0.0 | 0.0 | 0.61 | 1.37 | 1.37 | 96 | 1005.6 |
| 20260505084727 | 15 | 301 | 0.0 | 0.0 | 0.48 | 1.35 | 1.35 | 96 | 1004.3 |
| 20260505084226 | 15 | 300 | 0.0 | 0.0 | 0.36 | 1.30 | 1.30 | 96 | 1004.0 |
| 20260505083722 | 15 | 300 | 0.0 | 0.0 | 0.30 | 1.27 | 1.27 | 96 | 1004.7 |
| 20260505083219 | 15 | 300 | 0.0 | 0.0 | 0.30 | 1.24 | 1.24 | 96 | 1004.9 |
| 20260505082715 | 15 | 300 | 0.0 | 0.0 | 0.79 | 1.22 | 1.22 | 96 | 1004.8 |
| 20260505082212 | 15 | 300 | 0.0 | 0.0 | 0.89 | 1.19 | 1.19 | 96 | 1004.7 |
| 20260505081707 | 15 | 300 | 0.0 | 0.0 | 0.61 | 1.12 | 1.12 | 96 | 1005.2 |
| 20260505081205 | 15 | 301 | 0.0 | 0.0 | 0.89 | 1.04 | 1.04 | 96 | 1005.2 |
| 20260505080703 | 15 | 301 | 0.0 | 0.0 | 1.37 | 1.02 | 1.02 | 96 | 1005.3 |
| 20260505080158 | 15 | 302 | 0.0 | 0.0 | 1.32 | 0.91 | 0.91 | 96 | 1004.9 |
| 20260505075654 | 15 | 302 | 0.0 | 0.0 | 1.55 | 0.79 | 0.79 | 95 | 1005.1 |
| 20260505075152 | 15 | 302 | 1.6 | 3.2 | 2.34 | 0.69 | 0.69 | 95 | 1005.8 |
| 20260505074648 | 15 | 302 | 0.0 | 1.6 | 2.16 | 0.51 | 0.51 | 95 | 1005.9 |
| 20260505074145 | 15 | 284 | 0.0 | 0.0 | 1.37 | 0.33 | 0.33 | 95 | 1006.0 |
| 20260505073643 | 15 | 284 | 0.0 | 1.6 | 0.43 | 0.15 | 0.15 | 94 | 1005.7 |
| 20260505073141 | 15 | 284 | 0.0 | 0.0 | 0.30 | 0.10 | 0.10 | 93 | 1005.6 |
| 20260505072636 | 15 | 284 | 0.0 | 0.0 | 0.18 | 0.08 | 0.08 | 92 | 1005.0 |
| 20260505072133 | 16 | 284 | 1.6 | 1.6 | 0.13 | 0.05 | 0.05 | 91 | 1005.1 |
| 20260505071628 | 16 | 284 | 0.0 | 0.0 | 0.13 | 0.05 | 0.05 | 90 | 1005.6 |
| 20260505071127 | 16 | 284 | 1.6 | 1.6 | 0.00 | 0.03 | 0.03 | 88 | 1005.0 |
| 20260505070624 | 16 | 283 | 0.0 | 0.0 | 0.00 | 0.03 | 0.03 | 87 | 1005.1 |
| 20260505070120 | 16 | 284 | 1.6 | 3.2 | 0.00 | 0.03 | 0.03 | 86 | 1005.2 |
| 20260505065616 | 17 | 230 | 1.6 | 3.2 | 0.18 | 0.03 | 0.03 | 82 | 1005.3 |
| 20260505065113 | 17 | 210 | 0.0 | 1.6 | 0.18 | 0.03 | 0.03 | 81 | 1004.7 |
| 20260505064610 | 17 | 240 | 1.6 | 3.2 | 0.00 | 0.00 | 0.00 | 82 | 1004.3 |
| 20260505064108 | 18 | 241 | 1.6 | 3.2 | 0.00 | 0.00 | 0.00 | 76 | 1004.5 |
| 20260505063605 | 18 | 263 | 4.8 | 4.8 | 0.00 | 0.00 | 0.00 | 74 | 1004.9 |
| 20260505063101 | 18 | 254 | 4.8 | 8.0 | 0.00 | 0.00 | 0.00 | 74 | 1005.0 |
| 20260505062557 | 18 | 225 | 1.6 | 1.6 | 0.00 | 0.00 | 0.00 | 73 | 1005.4 |
| 20260505062055 | 18 | 226 | 3.2 | 3.2 | 0.00 | 0.00 | 0.00 | 72 | 1005.1 |
| 20260505061552 | 18 | 257 | 9.7 | 12.9 | 0.00 | 0.00 | 0.00 | 71 | 1005.3 |
| 20260505061050 | 18 | 219 | 6.4 | 11.3 | 0.00 | 0.00 | 0.00 | 72 | 1005.1 |
| 20260505060547 | 18 | 213 | 4.8 | 4.8 | 0.00 | 0.00 | 0.00 | 72 | 1005.3 |
| 20260505060044 | 18 | 228 | 4.8 | 4.8 | 0.00 | 0.00 | 0.00 | 71 | 1005.3 |
| 20260505055539 | 18 | 224 | 4.8 | 4.8 | 0.00 | 0.00 | 0.00 | 71 | 1005.3 |
| 20260505055036 | 18 | 231 | 4.8 | 9.7 | 0.00 | 0.00 | 0.00 | 71 | 1005.4 |
| 20260505054533 | 18 | 222 | 11.3 | 12.9 | 0.00 | 0.00 | 0.00 | 71 | 1005.2 |
| 20260505054032 | 18 | 237 | 8.0 | 9.7 | 0.00 | 0.00 | 0.00 | 71 | 1005.2 |
| 20260505053528 | 18 | 239 | 4.8 | 9.7 | 0.00 | 0.00 | 0.00 | 71 | 1005.1 |
| 20260505053025 | 18 | 224 | 12.9 | 14.5 | 0.00 | 0.00 | 0.00 | 72 | 1004.8 |
| 20260505052522 | 18 | 221 | 8.0 | 11.3 | 0.00 | 0.00 | 0.00 | 71 | 1005.0 |
| 20260505052019 | 18 | 225 | 11.3 | 12.9 | 0.00 | 0.00 | 0.00 | 71 | 1004.9 |
| 20260505051516 | 18 | 198 | 11.3 | 12.9 | 0.00 | 0.00 | 0.00 | 71 | 1004.7 |
| 20260505051014 | 18 | 184 | 8.0 | 14.5 | 0.00 | 0.00 | 0.00 | 71 | 1004.6 |
| 20260505050511 | 18 | 176 | 12.9 | 14.5 | 0.00 | 0.00 | 0.00 | 70 | 1004.7 |
| 20260505041434 | 18 | 205 | 6.4 | 9.7 | 0.00 | 0.00 | 0.00 | 70 | 1005.6 |
| 20260505040931 | 18 | 165 | 9.7 | 11.3 | 0.00 | 0.00 | 0.00 | 70 | 1005.7 |
| 20260505040428 | 18 | 227 | 9.7 | 12.9 | 0.00 | 0.00 | 0.00 | 70 | 1005.6 |
| 20260505035925 | 19 | 194 | 4.8 | 8.0 | 0.00 | 0.00 | 0.00 | 69 | 1005.9 |
| 20260505035421 | 19 | 232 | 11.3 | 12.9 | 0.00 | 0.00 | 0.00 | 69 | 1006.0 |
| 20260505034919 | 19 | 221 | 6.4 | 8.0 | 0.00 | 0.00 | 0.00 | 68 | 1005.9 |
| 20260505034415 | 19 | 169 | 8.0 | 9.7 | 0.00 | 0.00 | 0.00 | 69 | 1006.1 |
| 20260505033912 | 19 | 226 | 12.9 | 14.5 | 0.00 | 0.00 | 0.00 | 68 | 1005.8 |
| 20260505033409 | 19 | 211 | 4.8 | 9.7 | 0.00 | 0.00 | 0.00 | 68 | 1005.7 |
| 20260505032907 | 20 | 202 | 8.0 | 9.7 | 0.00 | 0.00 | 0.00 | 68 | 1005.8 |
| 20260505032403 | 20 | 207 | 8.0 | 9.7 | 0.00 | 0.00 | 0.00 | 67 | 1005.9 |
| 20260505031900 | 20 | 243 | 4.8 | 8.0 | 0.00 | 0.00 | 0.00 | 67 | 1006.3 |
| 20260505031357 | 20 | 208 | 6.4 | 9.7 | 0.00 | 0.00 | 0.00 | 67 | 1006.1 |
| 20260505030854 | 20 | 201 | 4.8 | 4.8 | 0.00 | 0.00 | 0.00 | 67 | 1006.1 |
| 20260505030350 | 20 | 206 | 6.4 | 11.3 | 0.00 | 0.00 | 0.00 | 66 | 1006.2 |
| 20260505025846 | 20 | 209 | 4.8 | 4.8 | 0.00 | 0.00 | 0.00 | 66 | 1006.1 |
| 20260505025344 | 20 | 185 | 8.0 | 9.7 | 0.00 | 0.00 | 0.00 | 66 | 1006.1 |
| 20260505024842 | 20 | 197 | 1.6 | 1.6 | 0.00 | 0.00 | 0.00 | 66 | 1005.9 |
| 20260505024340 | 20 | 202 | 3.2 | 3.2 | 0.00 | 0.00 | 0.00 | 66 | 1005.8 |
| 20260505023836 | 20 | 227 | 4.8 | 8.0 | 0.00 | 0.00 | 0.00 | 65 | 1006.0 |
| 20260505023333 | 20 | 215 | 6.4 | 9.7 | 0.00 | 0.00 | 0.00 | 64 | 1005.9 |
| 20260505022830 | 20 | 200 | 1.6 | 3.2 | 0.00 | 0.00 | 0.00 | 64 | 1005.9 |
| 20260505022327 | 20 | 245 | 6.4 | 11.3 | 0.00 | 0.00 | 0.00 | 64 | 1005.8 |
| 20260505021825 | 20 | 224 | 4.8 | 4.8 | 0.00 | 0.00 | 0.00 | 64 | 1005.6 |
| 20260505021321 | 20 | 243 | 4.8 | 8.0 | 0.00 | 0.00 | 0.00 | 63 | 1005.6 |
| 20260505020817 | 20 | 192 | 8.0 | 11.3 | 0.00 | 0.00 | 0.00 | 63 | 1005.6 |
| 20260505020313 | 20 | 226 | 6.4 | 9.7 | 0.00 | 0.00 | 0.00 | 63 | 1005.3 |
| 20260505015809 | 20 | 214 | 4.8 | 8.0 | 0.00 | 0.00 | 0.00 | 63 | 1005.4 |
| 20260505015307 | 21 | 208 | 1.6 | 3.2 | 0.00 | 0.00 | 0.00 | 62 | 1005.3 |
| 20260505014804 | 20 | 214 | 4.8 | 8.0 | 0.00 | 0.00 | 0.00 | 62 | 1005.1 |
| 20260505014301 | 21 | 164 | 1.6 | 3.2 | 0.00 | 0.00 | 0.00 | 61 | 1005.1 |
| 20260505013757 | 21 | 173 | 6.4 | 9.7 | 0.00 | 0.00 | 0.00 | 61 | 1005.0 |
| 20260505013255 | 21 | 228 | 9.7 | 12.9 | 0.00 | 0.00 | 0.00 | 61 | 1004.9 |
| 20260505012753 | 21 | 229 | 8.0 | 12.9 | 0.00 | 0.00 | 0.00 | 61 | 1004.9 |
| 20260505012250 | 21 | 264 | 9.7 | 14.5 | 0.00 | 0.00 | 0.00 | 60 | 1005.0 |
| 20260505011746 | 21 | 198 | 17.7 | 17.7 | 0.00 | 0.00 | 0.00 | 60 | 1004.8 |
| 20260505011243 | 21 | 243 | 16.1 | 16.1 | 0.00 | 0.00 | 0.00 | 60 | 1005.0 |
| 20260505010739 | 21 | 210 | 11.3 | 12.9 | 0.00 | 0.00 | 0.00 | 59 | 1004.9 |
| 20260505010235 | 21 | 200 | 8.0 | 14.5 | 0.00 | 0.00 | 0.00 | 59 | 1004.8 |
| 20260505005731 | 21 | 216 | 14.5 | 20.9 | 0.00 | 0.00 | 0.00 | 58 | 1004.7 |
| 20260505005228 | 21 | 228 | 25.7 | 33.8 | 0.00 | 0.00 | 0.00 | 58 | 1004.5 |
| 20260505004726 | 22 | 231 | 20.9 | 24.1 | 0.00 | 0.00 | 0.00 | 58 | 1004.7 |
| 20260505004222 | 22 | 183 | 11.3 | 16.1 | 0.00 | 0.00 | 0.00 | 58 | 1004.5 |
| 20260505003719 | 22 | 139 | 14.5 | 24.1 | 0.00 | 0.00 | 0.00 | 58 | 1004.6 |
| 20260505003217 | 22 | 188 | 12.9 | 20.9 | 0.00 | 0.00 | 0.00 | 58 | 1004.7 |
| 20260505002713 | 22 | 220 | 11.3 | 22.5 | 0.00 | 0.00 | 0.00 | 58 | 1004.4 |
| 20260505002211 | 22 | 261 | 12.9 | 29.0 | 0.00 | 0.00 | 0.00 | 58 | 1004.6 |
| 20260505001708 | 22 | 192 | 9.7 | 12.9 | 0.00 | 0.00 | 0.00 | 57 | 1004.4 |
| 20260505001205 | 22 | 195 | 9.7 | 12.9 | 0.00 | 0.00 | 0.00 | 58 | 1004.4 |
| 20260505000702 | 22 | 225 | 12.9 | 20.9 | 0.00 | 0.00 | 0.00 | 57 | 1004.4 |
| 20260505000200 | 23 | 230 | 8.0 | 20.9 | 0.00 | 0.00 | 0.00 | 56 | 1004.4 |
| 20260504235656 | 23 | 237 | 16.1 | 24.1 | 0.00 | 0.00 | 0.00 | 56 | 1004.3 |
| 20260504235153 | 23 | 163 | 8.0 | 11.3 | 0.00 | 0.00 | 0.00 | 55 | 1004.5 |
| 20260504234650 | 23 | 259 | 8.0 | 14.5 | 0.00 | 0.00 | 0.00 | 54 | 1004.5 |
| 20260504234147 | 23 | 247 | 11.3 | 16.1 | 0.00 | 0.00 | 0.00 | 54 | 1004.2 |
| 20260504233643 | 23 | 217 | 4.8 | 4.8 | 0.00 | 0.00 | 0.00 | 54 | 1004.3 |
| 20260504233139 | 23 | 184 | 14.5 | 24.1 | 0.00 | 0.00 | 0.00 | 53 | 1004.4 |
| 20260504232637 | 23 | 260 | 22.5 | 27.4 | 0.00 | 0.00 | 0.00 | 52 | 1004.3 |
| 20260504232134 | 23 | 219 | 11.3 | 14.5 | 0.00 | 0.00 | 0.00 | 53 | 1004.5 |
| 20260504231630 | 23 | 222 | 16.1 | 22.5 | 0.00 | 0.00 | 0.00 | 53 | 1004.3 |
| 20260504231127 | 23 | 201 | 4.8 | 8.0 | 0.00 | 0.00 | 0.00 | 52 | 1004.4 |
| 20260504230623 | 23 | 197 | 14.5 | 16.1 | 0.00 | 0.00 | 0.00 | 52 | 1004.3 |
| 20260504230122 | 23 | 219 | 6.4 | 9.7 | 0.00 | 0.00 | 0.00 | 53 | 1004.4 |
| 20260504225619 | 23 | 201 | 9.7 | 14.5 | 0.00 | 0.00 | 0.00 | 52 | 1004.4 |
| 20260504225115 | 23 | 227 | 8.0 | 12.9 | 0.00 | 0.00 | 0.00 | 53 | 1004.5 |
| 20260504224612 | 23 | 171 | 8.0 | 14.5 | 0.00 | 0.00 | 0.00 | 53 | 1004.4 |
| 20260504224109 | 24 | 197 | 8.0 | 14.5 | 0.00 | 0.00 | 0.00 | 52 | 1004.4 |
| 20260504223606 | 24 | 231 | 11.3 | 16.1 | 0.00 | 0.00 | 0.00 | 52 | 1004.4 |
| 20260504223102 | 24 | 209 | 12.9 | 14.5 | 0.00 | 0.00 | 0.00 | 51 | 1004.7 |
| 20260504222559 | 24 | 212 | 16.1 | 22.5 | 0.00 | 0.00 | 0.00 | 51 | 1004.7 |
| 20260504222056 | 24 | 234 | 4.8 | 11.3 | 0.00 | 0.00 | 0.00 | 52 | 1004.6 |
| 20260504221553 | 24 | 249 | 16.1 | 29.0 | 0.00 | 0.00 | 0.00 | 51 | 1004.8 |
| 20260504221050 | 24 | 209 | 8.0 | 16.1 | 0.00 | 0.00 | 0.00 | 51 | 1004.8 |
| 20260504220547 | 24 | 234 | 17.7 | 27.4 | 0.00 | 0.00 | 0.00 | 50 | 1004.8 |
| 20260504220044 | 24 | 149 | 9.7 | 17.7 | 0.00 | 0.00 | 0.00 | 50 | 1004.8 |
| 20260504215540 | 24 | 201 | 16.1 | 24.1 | 0.00 | 0.00 | 0.00 | 49 | 1005.1 |
| 20260504215038 | 24 | 211 | 16.1 | 20.9 | 0.00 | 0.00 | 0.00 | 49 | 1004.9 |
| 20260504214533 | 24 | 200 | 4.8 | 8.0 | 0.00 | 0.00 | 0.00 | 50 | 1004.9 |
| 20260504214030 | 24 | 178 | 11.3 | 16.1 | 0.00 | 0.00 | 0.00 | 49 | 1004.9 |
| 20260504213527 | 25 | 233 | 12.9 | 22.5 | 0.00 | 0.00 | 0.00 | 50 | 1005.0 |
| 20260504213024 | 25 | 260 | 19.3 | 35.4 | 0.00 | 0.00 | 0.00 | 49 | 1005.0 |
| 20260504212519 | 24 | 220 | 19.3 | 24.1 | 0.00 | 0.00 | 0.00 | 49 | 1005.2 |
| 20260504212017 | 24 | 221 | 27.4 | 33.8 | 0.00 | 0.00 | 0.00 | 49 | 1005.2 |
| 20260504211514 | 24 | 212 | 16.1 | 20.9 | 0.00 | 0.00 | 0.00 | 50 | 1004.8 |
| 20260504211011 | 25 | 183 | 12.9 | 20.9 | 0.00 | 0.00 | 0.00 | 48 | 1005.2 |
| 20260504210507 | 25 | 231 | 16.1 | 20.9 | 0.00 | 0.00 | 0.00 | 49 | 1005.3 |
| 20260504210005 | 25 | 256 | 19.3 | 32.2 | 0.00 | 0.00 | 0.00 | 48 | 1005.4 |
| 20260504205502 | 25 | 225 | 9.7 | 14.5 | 0.00 | 0.00 | 0.00 | 49 | 1005.2 |
| 20260504205000 | 25 | 228 | 11.3 | 17.7 | 0.00 | 0.00 | 0.00 | 48 | 1005.4 |
| 20260504204458 | 25 | 105 | 16.1 | 20.9 | 0.00 | 0.00 | 0.00 | 48 | 1005.7 |
| 20260504203957 | 25 | 138 | 24.1 | 37.0 | 0.00 | 0.00 | 0.00 | 46 | 1005.6 |
| 20260504203454 | 25 | 135 | 14.5 | 16.1 | 0.00 | 0.00 | 0.00 | 48 | 1005.6 |
| 20260504202950 | 25 | 196 | 17.7 | 29.0 | 0.00 | 0.00 | 0.00 | 48 | 1005.8 |
| 20260504202447 | 25 | 188 | 1.6 | 8.0 | 0.00 | 0.00 | 0.00 | 48 | 1005.7 |
| 20260504201944 | 25 | 201 | 12.9 | 20.9 | 0.00 | 0.00 | 0.00 | 48 | 1005.7 |
| 20260504201441 | 25 | 206 | 14.5 | 20.9 | 0.00 | 0.00 | 0.00 | 49 | 1005.8 |